KN4RPA Weather Reports


time (UTC)temp
F
wind
direction
speed
knots
gust
knots
rain 1hr
in
rain 24hr
in
rain mn
in
humidity
%
barometer
mb
20260502231536 58 337 0.0 4.3 0.00 0.00 0.00 35 1010.2
20260502230035 58 334 0.0 2.6 0.00 0.00 0.00 34 1010.1
20260502224535 58 36 0.0 3.5 0.00 0.00 0.00 33 1010.1
20260502223035 58 325 0.0 2.6 0.00 0.00 0.00 34 1010.1
20260502221534 59 327 0.0 2.6 0.00 0.00 0.00 36 1010.1
20260502220042 59 336 0.0 4.3 0.00 0.00 0.00 33 1010.1
20260502214536 59 345 0.0 7.0 0.00 0.00 0.00 33 1010.3
20260502213039 59 183 0.0 4.3 0.00 0.00 0.00 34 1010.1
20260502211536 59 333 0.0 2.6 0.00 0.00 0.00 32 1010.0
20260502210033 59 355 0.9 5.2 0.00 0.00 0.00 32 1010.1
20260502204530 59 34 1.7 7.0 0.00 0.00 0.00 32 1010.2
20260502203030 59 11 2.6 7.0 0.00 0.00 0.00 33 1010.1
20260502201528 59 23 0.0 4.3 0.00 0.00 0.00 36 1010.1
20260502200026 59 32 0.9 8.7 0.00 0.00 0.00 34 1010.3
20260502194524 58 258 0.0 7.0 0.00 0.00 0.00 37 1010.5
20260502193022 57 9 0.0 7.0 0.00 0.00 0.00 37 1010.9
20260502191521 58 113 0.0 5.2 0.00 0.00 0.00 38 1010.8
20260502190032 57 46 0.0 2.6 0.00 0.00 0.00 38 1011.2
20260502184520 57 69 0.9 5.2 0.00 0.00 0.00 37 1011.5
20260502183019 57 355 0.0 4.3 0.00 0.00 0.00 38 1011.8
20260502181518 58 16 1.7 7.0 0.00 0.00 0.00 36 1012.0
20260502163017 56 331 0.9 7.0 0.00 0.00 0.00 38 1013.1
20260502161510 58 233 0.0 3.5 0.00 0.00 0.00 40 1013.0
20260502151515 54 36 0.0 2.6 0.00 0.00 0.00 47 1013.4
20260502123043 49 345 0.9 5.2 0.00 0.00 0.00 57 1013.1
20260502121543 49 20 1.7 11.3 0.00 0.00 0.00 58 1013.1
20260502114537 49 336 0.0 4.3 0.00 0.00 0.00 60 1013.0
20260502113046 49 360 0.0 3.5 0.00 0.00 0.00 61 1013.1
20260502111534 49 34 0.0 4.3 0.00 0.00 0.00 62 1013.0
20260502110035 49 52 0.9 7.8 0.00 0.00 0.00 62 1012.9
20260502104525 49 24 0.0 5.2 0.00 0.00 0.00 63 1012.6
20260502103023 50 317 0.0 5.2 0.00 0.00 0.00 64 1012.5
20260502101524 50 341 0.9 7.0 0.00 0.00 0.00 65 1012.3
20260502091515 51 27 0.0 2.6 0.00 0.00 0.00 69 1011.4
20260502071505 53 154 0.0 0.0 0.00 0.00 0.00 70 1010.9
20260502070007 53 154 0.0 0.0 0.00 0.00 0.00 69 1010.9
20260502064501 53 154 0.0 0.0 0.00 0.00 0.00 68 1011.0
20260502063102 54 154 0.0 0.0 0.00 0.00 0.00 67 1011.1
20260502061559 55 154 0.0 0.0 0.00 0.00 0.00 66 1011.2
20260502060056 55 154 0.0 0.9 0.00 0.00 0.00 65 1011.6
20260502054559 55 154 0.0 0.0 0.00 0.00 0.00 65 1011.7
20260502053053 56 154 0.0 0.9 0.00 0.00 0.00 63 1011.6
20260502051553 56 154 0.0 0.9 0.00 0.00 0.00 62 1011.5
20260502050054 56 154 0.0 0.0 0.00 0.00 0.00 61 1011.3
20260502044552 56 154 0.0 2.6 0.00 0.00 0.00 59 1011.3
20260502043050 55 161 0.0 0.0 0.00 0.00 0.00 58 1011.4
20260502041557 55 161 0.0 2.6 0.00 0.00 0.00 58 1011.5
20260502040047 55 161 0.0 2.6 0.00 0.00 0.00 57 1011.1
20260502034547 55 161 0.0 0.9 0.00 0.00 0.00 56 1010.6
20260502033048 55 161 0.0 1.7 0.00 0.00 0.00 55 1010.2
20260502031552 55 161 0.0 0.0 0.00 0.00 0.00 55 1010.1
20260502030050 55 161 0.0 0.0 0.00 0.00 0.00 55 1010.0
20260502024602 56 161 0.0 0.0 0.00 0.00 0.00 53 1009.9
20260502023103 56 161 0.0 0.0 0.00 0.00 0.00 52 1009.7
20260502021544 56 161 0.0 4.3 0.00 0.00 0.00 52 1009.9
20260502020044 56 161 0.0 2.6 0.00 0.00 0.00 52 1009.9
20260502014543 57 161 0.0 1.7 0.00 0.00 0.00 49 1009.7
20260502013043 58 161 0.0 0.0 0.00 0.00 0.00 49 1009.7
20260502011543 59 161 0.0 0.0 0.00 0.00 0.00 44 1009.6
20260502010143 60 161 0.0 0.0 0.00 0.00 0.00 42 1009.4
20260502004541 61 161 0.0 0.0 0.00 0.00 0.00 39 1008.9
20260502003040 62 161 0.0 0.0 0.00 0.00 0.00 39 1008.6
20260502001540 62 161 0.0 0.9 0.00 0.00 0.00 38 1008.7
20260502000059 63 161 0.0 0.0 0.00 0.00 0.00 37 1008.8
20260501234539 64 161 0.0 2.6 0.00 0.00 0.00 34 1008.6
20260501233038 65 161 0.0 0.9 0.00 0.00 0.00 33 1008.5